This is the latest recevied weather packets stored in our database for station/object N8WJW. If no packets are shown the sender has not sent any weather packets the latest 10 day(s).
| Time | Temp. | Humidity | Pressure | Rain* | Wind** | Luminosity | Snow |
|---|---|---|---|---|---|---|---|
| 1778019907 | 9.44° C | 99% | 1009.6 hPa | 0 mm | - | 8 W/m² | - |
| 1778019603 | 9.44° C | 99% | 1009.7 hPa | 0 mm | - | 5 W/m² | - |
| 1778019300 | 10° C | 99% | 1009.5 hPa | 0 mm | - | 19 W/m² | - |
| 1778018997 | 10° C | 99% | 1009.6 hPa | 0 mm | - | 17 W/m² | - |
| 1778018694 | 10° C | 99% | 1009.8 hPa | 0 mm | - | 8 W/m² | - |
| 1778018391 | 10° C | 99% | 1009.4 hPa | 0 mm | - | 14 W/m² | - |
| 1778018090 | 10° C | 99% | 1009.4 hPa | 0 mm | - | 16 W/m² | - |
| 1778017787 | 10° C | 99% | 1009.4 hPa | 0 mm | - | 24 W/m² | - |
| 1778017485 | 10° C | 99% | 1009.3 hPa | 0 mm | - | 69 W/m² | - |
| 1778017182 | 10.56° C | 99% | 1009.5 hPa | 0.51 mm | - | 87 W/m² | - |
| 1778016880 | 10.56° C | 99% | 1009.3 hPa | 0 mm | - | 52 W/m² | - |
| 1778016576 | 11.11° C | 99% | 1009.8 hPa | 0 mm | - | 19 W/m² | - |
| 1778016273 | 11.67° C | 99% | 1009.4 hPa | 0 mm | - | 22 W/m² | - |
| 1778015969 | 12.22° C | 99% | 1008.9 hPa | 0 mm | - | 15 W/m² | - |
| 1778015667 | 12.22° C | 99% | 1009 hPa | 0 mm | - | 15 W/m² | - |
| 1778015363 | 12.78° C | 99% | 1008.6 hPa | 0 mm | - | 21 W/m² | - |
| 1778015063 | 12.78° C | 99% | 1008.9 hPa | 0 mm | - | 14 W/m² | - |
| 1778014757 | 12.78° C | 99% | 1008.8 hPa | 0 mm | - | 39 W/m² | - |
| 1778014455 | 12.78° C | 99% | 1009.1 hPa | 0 mm | - | 51 W/m² | - |
| 1778014152 | 12.78° C | 99% | 1009.2 hPa | 0 mm | - | 45 W/m² | - |
| 1778013849 | 12.78° C | 98% | 1009.2 hPa | 0 mm | - | 28 W/m² | - |
| 1778013547 | 12.78° C | 98% | 1009.2 hPa | 0 mm | - | 30 W/m² | - |
| 1778013243 | 12.78° C | 98% | 1008.9 hPa | 0 mm | - | 42 W/m² | - |
| 1778012939 | 12.78° C | 98% | 1008.9 hPa | 0 mm | - | 22 W/m² | - |
| 1778012636 | 12.78° C | 97% | 1009 hPa | 0 mm | - | 23 W/m² | - |
* Rain latest hour (hover to see other rain measurements)
** Current wind speed in m/s (hover to see current wind gust speed)